CZ-3C DEB, 44526

Orbit data source: Space-Track

CZ-3C DEB, 44526 is space debris in HEO originally from a launch on Sun, 31 Oct 2010 UTC launched from the Xichang Space Center, China (XSC). Debris objects in space refer to the collection of defunct objects orbiting the Earth. Examples of debris include non-operational satellites, rocket bodies, and fragments generated from explosions, collisions, or faulty payload assembly.

Loading next visibility...
Identifier
44526, 2010-057BL
Orbit
HEO
Country
Flag of CNCN / PRC
Related business
Manufacturer
CALT
Mission
Spacecraft
Bus & Motor
Unknown
Mass
Unknown
Launch date (UTC)
2010-10-31 (15 years ago)
Launch vehicle
Unknown
Launch site
Xichang Space Center, China (XSC)
Object type
Payload
Rocket body
Debris
Shape & HBR
Unknown
Radar Cross Section
Medium (>0.1 m² and <1 m²)

Expand to show TLE details & history
Last TLE update: 1 day ago

TLE from 1 day ago
0 CZ-3C DEB
1 44526U 10057BL  25260.05577424  .00000072  00000-0  20739-2 0  9995
2 44526  21.2966 197.2886 6993101 128.7286 317.2675  2.49139360 89446
Epoch: 2025-09-17T01:20Z
TLE epoch observation values (Epoch: 2025-09-17T01:20:18.894Z)
Latitude
0.00003°
Longitude
-179.14624°
Altitude
14,520.43 km
Speed
4.561 km/s
True Right ascension
13h 08m 40s
True Declination
0° 00' 00"
Sunlit
Object was in daylight at epoch
Visualization orbit readout
Latitude
Unknown
Longitude
Unknown
Altitude
Unknown
Speed
Unknown
Apparent Right ascension
Unknown
Apparent Declination
Unknown
Sunlit
N/A
Visualization observer readout
Local Sidereal Time
04:03:37
Azimuth
Unknown
Elevation
Unknown
Doppler factor
Unknown
Orbital elements
Apogee altitude
32,687.301 km
Perigee altitude
534.423 km
Semi-major axis
22,988.999 km
Eccentricity
0.69931
Inclination
21.2966°
RAAN
197.2886°
Arg. of periapsis
128.7286°
True anomaly
231.28756°
Mean anomaly
317.2675°
Eccentric anomaly
277.54708°
Mean motion
0.62268 °/min
Orbital period
578.15 mins
BSTAR
0.0020739
Loading maneuver chart data...
Computing Atmospheric mass density...
Loading historical data...
Loading historical data...
Loading historical data...
Loading historical data...
Loading historical data...
Loading historical data...
Loading historical data...

Documentation

Showing up to 5 results
|